Wind_Speed
39 39 40 41 41 42 42 42 43 43 43 42 42 41 41 40 39 38 38 37 38 38 39 39 40 40 41 41 41 41 41 41 41 41 40 39 39 38 38 38 37 36 35 36 36 37 38 38 38 39 40 41 41 42 42 42 42 41 41 41 40 41 42 44 45 43 37 33 34 34 33 33 32 31 31 31 32 34 35 34 33 31 30 30 32
38 38 39 40 41 41 42 42 43 44 44 44 45 45 45 45 44 43 43 42 41 40 40 40 40 41 41 42 42 42 42 42 42 42 42 41 41 40 40 39 39 38 38 37 37 37 38 39 39 39 39 40 41 42 42 43 44 44 45 45 45 44 46 47 47 47 42 36 34 34 33 34 34 32 32 32 32 33 34 34 33 33 31 28 29
37 38 38 39 40 41 41 42 43 43 44 44 45 45 46 46 47 47 46 46 46 45 44 43 42 42 42 42 42 43 43 44 44 44 44 43 43 42 41 41 41 40 40 39 39 38 38 39 39 40 40 40 40 41 42 43 43 44 45 46 47 47 47 49 49 49 48 43 38 36 35 35 35 34 33 33 34 34 34 34 33 33 33 31 30
37 38 38 39 40 40 41 42 42 43 43 44 45 45 46 46 47 47 48 48 48 48 48 47 47 46 45 44 44 44 44 44 44 45 45 45 45 44 43 43 42 42 41 41 41 40 40 40 40 40 40 40 40 41 41 42 42 43 44 44 45 46 47 48 50 50 51 48 44 40 38 37 36 35 35 35 35 36 36 36 35 33 33 33 32
37 38 38 39 39 40 41 41 42 42 43 44 44 45 45 46 46 47 47 48 48 49 49 49 49 49 49 48 47 47 46 46 45 45 46 46 46 46 46 45 44 43 43 43 43 42 42 41 41 41 41 41 41 41 41 42 42 42 43 43 44 45 45 46 48 49 51 51 48 45 42 40 38 37 37 37 37 37 38 38 38 36 34 33 33
37 38 38 39 39 39 40 40 41 41 42 43 43 44 45 45 46 46 47 47 48 48 49 49 49 50 50 50 50 50 50 49 49 48 47 47 47 47 47 47 47 46 45 45 44 44 44 43 42 42 42 42 42 42 42 42 42 42 43 43 43 44 44 45 46 48 49 51 51 48 46 44 43 40 39 39 39 39 40 40 40 40 39 38 36
37 37 38 38 39 39 40 40 40 40 41 41 42 43 44 44 45 46 46 47 47 47 47 48 48 49 49 50 50 51 51 52 52 51 51 50 49 48 48 48 48 48 48 47 47 47 46 46 45 44 44 44 43 43 43 43 43 42 42 43 43 44 44 44 44 46 47 49 50 50 48 47 46 44 43 42 42 41 41 42 43 43 43 43 41
37 37 38 38 39 39 40 40 40 40 41 41 41 42 42 43 44 44 45 46 46 46 47 47 47 47 48 48 49 49 50 52 53 53 53 53 52 51 50 49 49 49 49 49 49 49 49 49 48 47 47 46 45 45 45 45 45 44 43 43 44 44 44 44 44 45 46 47 48 49 49 48 47 47 46 45 45 44 43 43 44 45 46 46 45
38 38 38 38 38 39 39 40 41 41 42 42 42 42 42 43 43 43 44 44 45 45 45 46 46 46 46 46 47 47 48 49 50 52 53 54 55 54 53 52 51 50 50 50 50 50 51 51 51 50 50 49 48 47 47 46 47 46 45 45 45 45 44 44 44 44 45 46 47 48 48 48 47 47 47 47 47 47 46 46 46 45 46 47 48
38 38 38 39 39 39 40 40 41 42 42 42 43 43 43 43 43 43 43 44 44 44 44 44 45 44 44 44 44 45 45 46 47 49 51 52 54 55 55 55 54 53 52 51 51 51 51 52 52 52 52 52 51 50 49 48 48 48 48 47 47 46 46 45 44 44 44 45 46 46 47 47 45 46 47 48 48 49 48 48 48 47 46 47 48
39 39 39 39 40 40 41 41 41 42 42 42 43 43 43 43 43 43 43 43 43 43 43 43 43 43 43 43 42 43 43 44 44 45 47 49 51 53 54 54 54 54 54 54 53 52 52 52 52 53 53 54 54 53 52 51 51 50 50 49 49 49 48 47 46 44 44 45 45 45 45 46 44 44 46 47 47 49 49 49 50 49 47 47 47
39 39 40 40 41 41 41 41 41 41 41 41 41 41 42 42 42 42 42 42 42 43 43 43 42 42 42 41 41 41 41 42 42 43 43 45 47 49 51 52 52 53 54 55 55 55 54 53 53 53 53 54 55 55 55 54 53 53 52 51 51 50 50 50 50 48 46 46 46 45 44 45 44 42 43 45 46 46 48 49 50 50 49 48 46
39 40 40 40 41 41 41 41 40 40 40 39 39 40 40 40 41 41 41 41 41 41 42 42 42 42 42 41 40 39 40 40 40 41 41 42 44 46 47 48 49 50 51 52 54 55 55 56 55 55 54 53 54 55 55 56 56 56 55 54 53 52 52 52 52 52 50 49 48 47 45 45 45 43 41 43 45 46 45 46 47 49 50 49 47
40 40 40 41 41 41 41 41 40 39 38 38 38 38 39 39 39 40 40 40 40 40 40 41 41 41 41 40 40 39 39 39 39 40 40 40 41 43 44 45 45 46 47 48 50 51 53 55 56 56 56 55 54 54 55 56 57 57 57 57 56 55 54 53 53 53 53 52 52 50 48 47 47 45 42 41 43 45 46 46 45 46 47 49 48
40 40 40 41 41 41 40 39 39 38 38 38 38 38 38 38 38 38 39 39 39 39 39 39 39 39 39 39 39 39 39 39 39 39 39 40 41 41 42 42 43 43 43 44 46 47 49 51 53 55 56 57 56 56 56 56 57 57 57 58 58 57 56 55 54 54 55 55 55 54 52 51 49 48 46 44 43 43 45 46 47 47 48 47 46
40 39 40 40 40 40 39 38 38 37 37 38 38 38 38 38 37 37 37 37 37 38 38 38 38 38 38 38 38 38 38 38 38 38 39 39 40 41 41 41 42 42 42 42 43 44 45 47 49 50 52 54 55 56 57 58 59 58 58 57 58 58 57 56 56 56 57 57 57 57 56 55 53 51 50 48 46 45 44 45 46 47 49 50 48
39 39 39 40 39 39 39 38 37 37 37 37 38 38 38 37 37 36 36 35 36 36 36 36 36 36 37 37 37 36 36 36 36 37 38 38 39 40 40 41 41 41 42 42 42 42 43 44 45 46 48 49 50 52 55 57 59 60 60 60 59 59 58 57 57 57 58 59 59 59 59 58 56 55 53 52 51 49 48 47 45 44 46 49 50
39 39 39 39 39 39 38 38 37 37 37 37 37 37 37 36 36 35 35 34 33 33 34 34 34 34 35 35 35 35 34 34 34 35 35 36 37 38 38 39 40 40 41 41 41 42 42 42 43 44 45 46 47 48 50 53 56 58 60 62 62 62 60 59 59 58 59 60 61 61 61 60 60 58 57 55 54 52 52 51 48 47 46 47 47
38 38 39 39 39 39 38 38 38 37 37 37 36 36 35 35 34 34 33 32 32 31 31 31 31 32 32 32 33 33 33 32 32 32 32 33 34 35 36 37 38 39 40 40 41 41 41 41 42 42 44 44 45 46 47 50 53 55 57 60 62 63 63 62 62 61 60 61 61 61 61 61 61 61 60 58 57 55 55 54 52 51 50 48 47
37 38 38 39 39 39 39 38 38 38 37 36 36 35 34 33 33 32 31 31 29 29 29 29 29 30 30 31 32 32 31 30 29 29 30 31 32 33 34 35 36 37 38 39 40 40 41 41 41 41 42 43 44 45 46 47 49 52 54 57 59 61 61 62 63 64 64 64 63 61 61 61 61 62 62 61 60 58 57 56 56 55 54 52 51
36 37 38 39 39 39 39 38 38 37 37 36 35 34 33 32 31 30 29 28 27 27 27 28 28 29 30 30 30 30 29 29 28 29 30 30 32 33 34 35 36 37 38 38 40 40 41 41 41 41 42 42 43 44 45 46 47 49 51 53 55 57 58 60 62 63 65 66 66 64 62 61 62 63 63 63 63 61 60 59 58 58 58 56 55
35 36 37 38 39 39 39 38 38 37 36 36 34 34 33 32 31 29 28 27 27 27 27 28 28 28 28 28 29 29 29 29 29 29 30 31 32 34 35 37 38 39 40 40 40 41 41 41 41 41 41 42 42 43 44 44 46 47 48 50 51 53 56 58 60 61 63 64 66 66 65 64 63 64 63 63 63 63 62 61 60 60 60 60 58
34 35 37 38 39 39 38 38 37 37 36 35 34 34 33 32 31 30 29 28 28 28 28 28 28 27 27 28 28 29 29 29 30 31 32 33 34 36 37 39 40 42 43 43 43 43 43 43 42 41 41 42 42 43 43 44 45 46 46 47 48 50 53 56 58 59 60 61 63 65 66 66 66 66 65 64 64 64 64 63 62 61 61 62 62
34 35 36 38 38 38 38 37 37 37 36 35 34 34 33 33 32 31 31 30 29 29 29 29 29 28 28 28 28 29 30 30 31 33 34 35 36 37 38 39 41 42 44 44 45 45 45 45 45 44 44 43 43 43 44 44 45 45 45 46 47 48 50 52 54 56 58 60 60 61 62 63 65 66 67 66 66 65 65 64 64 63 62 62 63
34 35 36 37 38 38 37 36 36 36 36 36 35 34 34 33 32 32 32 32 31 31 30 30 30 30 30 29 29 30 31 32 33 35 36 37 38 39 39 40 41 42 43 44 44 45 45 46 46 46 46 46 46 46 45 45 45 46 46 46 47 47 48 49 51 53 55 57 58 59 59 59 60 63 65 67 68 67 66 65 65 64 63 63 63
33 34 36 37 38 37 36 36 36 36 36 36 35 34 34 33 33 33 33 33 33 32 32 32 32 33 32 32 32 33 33 35 36 38 39 40 40 41 41 41 42 42 43 43 43 43 44 45 46 46 47 47 47 48 48 47 47 47 47 47 47 47 47 48 49 50 51 53 54 55 56 55 56 57 60 63 66 67 67 67 66 65 64 64 64
33 34 35 36 37 37 36 35 35 35 35 35 35 35 34 34 33 33 33 33 33 33 33 34 34 35 35 35 35 35 36 36 37 38 39 40 40 41 41 41 41 42 42 42 42 42 44 45 46 46 46 46 47 47 48 48 48 49 48 48 48 48 47 47 48 48 49 49 50 51 52 52 52 54 55 58 60 62 64 65 67 67 66 65 66
32 33 34 36 37 37 36 35 35 35 35 35 35 34 34 34 33 33 33 33 32 32 33 33 34 35 35 35 35 34 34 33 34 35 36 36 37 38 38 39 39 40 40 40 41 42 43 45 45 45 45 46 46 45 45 45 45 46 46 47 47 47 46 46 47 47 47 47 47 48 48 48 49 50 51 53 55 56 58 60 63 65 65 65 66
32 33 34 35 36 36 36 35 35 34 34 35 34 34 34 34 33 32 33 33 33 32 32 32 32 33 33 33 33 32 31 30 30 31 32 33 34 35 36 37 37 38 39 39 40 41 43 44 44 44 44 44 44 43 42 41 41 41 41 42 43 43 43 44 44 45 45 45 46 46 45 46 46 46 47 49 50 51 52 54 57 60 61 62 64
31 32 34 35 36 35 35 35 35 35 34 34 34 34 34 35 35 34 33 34 34 34 34 33 33 33 33 32 32 31 31 31 31 31 32 32 33 34 35 36 36 37 38 39 39 41 42 42 41 42 42 43 42 41 40 39 38 38 37 38 38 39 39 40 41 42 42 42 43 43 43 43 44 44 45 46 47 47 48 49 51 53 55 57 60
31 32 34 35 35 35 34 34 34 34 34 34 34 33 33 34 35 35 35 35 35 35 36 36 36 35 35 35 33 33 32 33 33 33 33 33 33 34 35 36 36 37 38 39 39 40 40 40 39 39 39 40 40 39 38 37 37 36 36 36 36 36 36 37 37 38 39 39 39 39 39 40 41 41 42 44 44 44 45 45 46 48 49 51 54
32 32 33 34 34 34 34 34 34 34 34 34 34 34 33 32 33 34 36 36 36 36 37 37 37 37 37 37 37 35 34 34 34 35 34 34 34 35 35 36 37 38 38 38 39 39 39 38 38 37 36 36 36 37 37 37 36 35 35 35 34 34 34 34 35 35 36 36 36 37 37 37 38 39 40 41 42 42 42 42 42 43 43 45 47
33 33 33 33 33 33 34 33 33 33 33 33 34 34 34 33 32 32 33 34 35 36 37 38 38 38 38 38 38 37 36 35 35 36 35 35 35 35 36 36 37 38 38 38 39 38 38 37 36 34 34 34 34 35 36 36 36 35 35 34 34 33 32 32 32 33 33 34 34 34 35 35 36 37 38 38 39 40 40 39 39 39 39 40 42
33 33 33 33 33 33 33 33 33 33 33 33 33 33 33 33 33 32 31 31 32 33 34 37 38 38 38 38 38 37 37 36 36 36 36 35 35 36 36 36 36 37 38 39 39 39 38 36 35 33 32 32 32 33 35 35 36 36 35 34 34 33 32 31 30 30 30 31 32 32 33 34 35 36 36 37 37 38 38 37 36 36 36 36 37
33 32 32 33 32 32 32 33 33 33 33 33 33 32 32 33 33 33 32 31 31 30 31 32 35 36 37 38 37 37 36 36 36 36 36 36 36 35 35 35 35 35 35 37 38 37 37 36 35 33 32 31 31 32 33 34 34 35 34 33 33 32 31 30 28 27 27 27 28 29 30 31 32 33 35 35 36 36 37 36 36 36 35 34 34
32 32 32 32 32 32 32 32 33 33 32 32 32 32 32 32 32 32 32 32 31 30 30 30 31 33 35 36 36 35 35 35 35 35 35 35 36 35 35 35 35 34 34 35 35 35 35 35 34 33 32 32 31 32 32 32 32 32 32 33 32 31 30 29 27 25 24 24 24 25 25 26 27 28 30 32 33 34 35 35 35 35 35 34 33
32 32 32 32 32 31 31 32 32 32 32 32 32 32 32 32 32 31 31 31 31 30 30 29 30 31 32 33 34 34 33 33 34 34 34 35 35 35 35 35 35 35 35 34 34 34 33 33 33 32 31 31 31 30 30 30 30 30 31 31 32 31 30 29 27 25 24 23 22 22 22 23 24 25 26 27 28 29 30 31 31 32 33 33 33
32 32 31 31 31 31 31 31 31 31 31 31 31 31 31 31 31 31 30 30 30 30 30 29 30 30 31 31 31 31 30 31 31 32 32 33 33 33 34 34 35 35 34 33 33 32 31 31 30 30 30 30 30 30 30 30 30 30 30 31 31 31 31 30 28 27 25 24 22 22 22 22 23 24 25 26 27 28 29 29 28 28 29 30 30
31 31 31 31 31 31 31 31 31 31 31 30 30 30 30 30 31 30 30 30 30 30 29 29 29 30 31 31 30 30 28 28 29 30 30 30 31 32 32 32 32 33 32 32 31 31 30 29 29 29 29 29 29 29 30 30 30 30 31 31 30 30 30 30 30 28 27 25 24 23 23 22 22 23 25 26 27 28 29 29 28 28 28 27 26
30 30 30 30 30 30 30 30 30 30 30 30 30 30 30 30 30 30 30 30 29 29 29 29 29 30 31 31 31 30 28 27 27 28 28 28 28 29 30 30 30 31 30 30 30 29 28 28 27 28 28 28 28 28 29 29 30 30 30 31 31 30 29 29 29 29 28 27 26 25 24 24 23 24 25 26 26 26 28 29 30 30 28 25 23
30 30 30 30 30 30 30 30 30 30 30 30 30 30 29 29 30 30 30 30 30 29 29 28 28 29 29 30 31 31 29 28 27 27 27 27 27 27 28 28 29 29 29 29 28 27 26 26 26 27 26 26 27 27 27 28 29 29 29 30 30 30 29 27 27 28 28 28 27 27 26 25 25 25 26 26 25 25 26 28 28 27 25 24 23
29 29 29 29 30 30 29 30 30 30 30 30 30 30 29 29 29 29 30 30 30 30 29 28 28 28 28 28 29 30 29 29 28 27 26 26 26 26 27 27 28 28 28 28 27 26 25 24 25 26 26 26 26 26 26 27 28 28 28 28 28 28 27 26 25 25 26 27 27 27 27 27 26 26 26 25 24 24 23 24 24 23 24 25 25
28 28 29 29 29 29 29 30 30 30 30 30 30 30 30 29 29 29 29 29 29 30 29 28 28 27 26 27 28 28 28 29 28 27 27 26 25 25 26 27 27 27 27 27 27 26 25 24 24 25 26 26 26 26 26 27 28 28 28 27 25 24 23 23 22 22 22 23 24 25 25 26 26 25 24 23 22 22 21 20 20 22 25 24 21
28 28 28 29 29 29 29 29 29 29 30 30 30 30 30 30 29 29 29 29 29 30 30 29 28 27 26 26 26 26 27 28 28 27 27 26 25 24 25 25 26 27 26 26 26 26 25 24 23 24 24 25 25 25 26 26 27 28 27 26 24 22 20 19 18 17 17 18 19 21 22 23 24 23 22 21 20 20 19 18 17 20 23 21 18
28 28 28 29 29 29 29 29 29 29 29 29 29 29 30 30 29 29 29 29 30 30 29 29 29 28 27 26 25 25 26 26 27 27 27 26 25 24 24 24 25 26 25 25 24 24 24 23 22 22 22 23 23 23 23 24 25 26 26 25 24 21 19 17 15 13 13 14 15 16 18 19 20 20 19 19 18 17 16 15 14 16 19 19 19
28 28 28 29 29 29 30 30 30 30 30 29 29 29 29 29 29 29 29 29 29 29 29 29 29 28 27 26 26 26 26 26 26 26 26 25 24 23 23 23 24 24 24 24 23 22 22 22 21 21 21 21 21 21 20 21 22 22 23 22 21 21 21 19 16 13 11 11 12 14 15 16 18 18 18 17 15 14 13 12 11 12 14 15 16
28 28 29 29 29 30 30 30 30 30 30 29 29 29 29 29 28 28 28 29 29 29 29 29 28 28 27 27 26 26 26 26 26 26 26 25 24 23 22 22 22 23 23 23 22 21 21 21 20 20 19 19 19 19 18 18 18 19 19 18 18 18 19 18 17 15 13 10 9 10 11 12 13 13 13 12 11 11 10 9 8 9 11 13 16
29 29 29 30 30 30 30 30 31 30 30 30 30 29 29 28 28 28 28 28 29 29 29 28 28 28 27 27 26 26 26 26 26 26 25 25 24 23 22 22 21 21 21 22 21 20 20 19 19 19 18 18 18 17 16 16 16 15 15 15 15 15 15 15 14 14 12 10 7 6 5 5 5 5 6 6 6 6 6 7 9 12 14 17 20
29 30 30 30 30 30 31 31 31 31 30 30 30 29 29 28 28 28 28 28 28 28 28 28 28 27 27 26 26 26 25 25 25 25 25 24 24 23 22 21 21 20 20 20 20 19 19 19 18 17 17 16 16 15 14 13 13 13 13 12 12 12 12 11 10 10 8 7 5 3 2 2 3 4 5 7 8 10 12 14 15 17 19 20 21
30 30 30 30 30 31 31 31 31 31 31 31 30 29 29 28 28 28 28 28 28 27 28 28 27 27 26 26 25 25 24 24 24 24 24 23 23 22 21 21 20 20 19 19 18 18 17 17 17 16 16 15 15 14 13 12 11 11 11 10 10 9 9 8 7 7 6 5 5 6 7 8 10 11 12 13 15 16 17 17 17 17 18 17 17
31 31 31 30 31 31 31 31 31 31 31 31 30 30 29 29 28 28 28 28 27 27 27 27 26 26 26 25 25 24 23 23 23 23 23 22 22 22 21 20 20 19 18 18 17 17 16 16 16 15 15 14 13 12 11 10 9 9 8 8 8 7 7 6 6 6 6 6 7 8 10 11 13 14 14 14 15 16 15 15 14 14 14 14 14
Wind_Direction
293 293 291 291 290 289 289 288 287 287 286 285 285 284 284 284 283 283 282 281 280 278 277 276 275 273 272 272 271 271 271 271 271 271 270 270 269 269 269 270 270 269 268 266 264 264 264 265 263 262 262 262 261 260 259 259 260 261 262 263 265 268 272 274 275 275 273 272 271 270 268 268 267 266 266 266 265 265 265 264 263 261 259 260 255
294 293 292 292 291 290 289 289 288 287 286 285 284 283 282 281 281 281 280 280 280 279 278 277 277 276 274 273 272 271 270 270 270 269 269 269 269 269 268 268 269 269 269 268 266 265 264 264 265 264 264 263 263 262 261 260 260 259 259 260 261 262 265 268 272 274 273 270 268 269 268 266 266 265 264 264 264 264 266 265 264 261 256 254 249
295 294 293 293 292 291 291 290 289 288 287 286 285 284 283 282 281 280 279 278 278 277 277 277 276 276 276 275 274 273 272 271 270 269 268 268 268 268 268 268 268 268 268 268 267 267 265 264 264 265 265 265 265 264 263 262 261 261 260 260 260 260 262 264 267 271 272 271 268 266 265 265 264 263 262 261 261 260 262 263 264 263 257 251 247
297 296 295 294 293 292 291 290 290 289 288 287 287 286 285 284 283 281 280 279 277 276 275 275 275 274 274 274 274 274 274 272 271 270 269 268 267 267 267 267 267 267 267 267 267 266 266 265 264 264 264 264 265 265 265 264 263 263 262 261 261 261 261 263 264 267 269 271 269 266 264 263 262 261 260 259 259 258 258 257 257 258 257 253 248
299 298 297 296 295 293 292 291 290 289 289 288 287 287 286 285 284 283 282 281 280 278 276 275 274 273 273 272 272 272 273 273 272 271 270 269 268 267 266 266 266 266 266 267 267 266 266 265 265 264 263 263 263 264 264 265 264 264 264 263 262 262 262 262 263 264 266 268 268 267 265 264 261 260 259 258 257 255 255 254 253 252 251 250 249
300 299 299 297 296 295 294 292 291 290 289 288 287 287 286 285 285 284 283 283 282 280 279 278 276 275 273 272 271 271 271 271 271 271 270 270 269 268 267 266 266 266 266 266 266 266 266 265 264 264 264 263 263 263 263 263 264 264 264 264 263 263 262 262 262 262 264 265 267 266 265 264 262 260 259 258 257 255 253 252 252 251 249 247 245
302 301 300 299 298 297 296 295 294 292 291 289 289 288 286 286 285 285 284 283 283 282 281 280 279 278 276 275 273 272 271 270 270 270 269 269 268 268 267 266 266 265 265 265 265 266 266 266 265 265 264 263 263 262 262 262 262 263 264 264 264 263 262 262 262 262 262 263 264 265 264 264 263 262 260 259 258 257 255 252 251 251 251 250 247
305 304 302 301 299 298 298 297 296 295 294 292 290 289 288 287 286 286 285 284 284 283 283 282 281 280 279 278 276 275 273 272 270 270 269 268 268 267 267 266 266 265 265 265 265 265 265 265 266 266 265 265 264 263 263 262 261 261 262 263 263 263 263 262 262 261 261 261 262 263 263 263 263 262 261 260 259 259 258 255 252 251 252 252 251
306 304 303 301 300 299 298 297 297 296 295 294 293 292 290 289 288 287 286 286 285 285 284 284 283 282 281 281 280 278 277 275 273 272 270 269 268 267 267 266 265 265 265 264 264 264 264 264 265 265 266 266 266 265 264 264 263 262 261 261 262 262 263 263 262 261 261 261 261 261 262 262 262 261 261 260 260 259 259 258 256 254 253 253 253
305 304 303 302 301 300 300 299 299 298 297 296 295 294 292 291 289 288 287 286 286 286 286 286 285 284 284 283 282 281 280 278 277 275 274 272 270 268 267 266 266 265 265 264 264 264 264 264 264 264 265 265 265 265 265 265 265 264 263 262 261 261 261 261 262 262 262 261 260 261 261 261 261 261 260 259 259 258 259 260 259 257 256 254 254
305 303 302 302 301 301 301 301 300 300 299 298 296 295 294 292 290 289 287 286 286 285 286 286 286 286 286 285 284 284 282 281 279 278 277 276 274 272 270 268 267 266 265 264 263 263 263 263 263 263 264 264 264 264 265 265 265 265 264 264 263 263 262 261 260 260 261 262 261 261 261 261 261 261 259 258 257 257 257 258 259 259 259 258 256
304 303 302 302 302 302 302 302 302 301 300 298 297 295 294 292 291 290 289 287 286 285 285 285 286 286 286 286 286 286 285 284 283 281 279 278 277 275 274 272 271 269 267 266 265 264 263 262 262 262 262 263 263 263 263 264 264 264 264 263 263 263 264 263 262 261 260 260 260 260 261 261 261 261 260 258 256 255 256 257 258 258 259 258 257
303 303 303 303 302 302 302 302 303 302 301 299 298 296 295 293 292 291 290 289 288 286 285 285 285 285 286 286 286 287 286 285 285 284 282 281 280 278 277 276 275 273 272 270 268 266 265 263 262 262 262 262 262 262 263 263 262 262 262 262 262 262 262 263 264 264 262 261 260 259 259 260 260 259 260 259 257 254 253 254 256 257 257 256 255
303 303 303 302 302 302 303 303 304 303 302 301 299 298 296 294 293 291 290 289 288 287 286 285 285 285 285 285 286 286 286 286 285 285 284 283 282 281 280 279 278 277 276 275 273 271 269 267 264 263 263 263 263 262 262 262 262 261 261 261 260 260 260 260 262 263 264 263 262 260 259 260 259 258 258 259 258 257 254 251 251 253 255 256 255
303 304 303 302 301 302 303 304 304 304 303 302 301 300 298 296 295 293 291 290 288 287 286 286 286 286 286 286 285 285 285 285 285 285 285 284 284 283 282 281 281 280 279 278 277 275 274 272 269 267 265 264 264 264 263 263 262 261 261 260 260 259 259 259 259 260 261 262 262 261 260 259 259 258 258 258 258 258 258 255 252 250 251 253 254
304 304 302 301 301 302 302 303 303 303 303 303 302 301 299 297 296 295 293 292 289 288 286 286 286 286 286 286 286 286 286 286 285 285 285 285 285 285 284 284 283 282 281 280 279 278 277 276 274 272 270 268 267 266 266 265 263 262 261 261 260 259 258 258 258 258 258 258 259 260 259 259 259 259 259 259 258 258 259 258 256 254 252 251 250
304 303 301 300 301 301 302 302 302 303 303 303 303 302 300 298 296 295 294 293 290 288 287 286 286 286 286 286 286 286 286 286 286 286 286 286 286 286 286 286 285 285 284 283 282 281 280 279 278 276 274 272 270 269 269 268 266 264 263 261 260 259 258 258 257 256 256 256 256 257 258 258 258 258 258 259 259 259 258 257 258 258 257 254 252
304 301 300 300 300 301 301 302 302 302 303 303 304 303 300 298 296 295 294 293 290 288 286 286 285 285 286 286 286 286 286 287 287 287 288 288 288 288 288 288 288 288 287 287 286 285 283 282 281 279 278 276 274 272 271 270 269 267 265 263 261 259 258 258 257 256 255 255 255 255 256 257 257 257 256 257 258 259 259 258 258 259 259 257 255
303 300 300 300 300 300 301 302 302 302 303 303 304 303 301 299 296 295 294 293 291 289 287 286 286 286 286 287 287 287 287 288 288 289 289 290 291 292 292 292 292 292 292 291 290 289 287 286 284 283 281 280 277 275 273 272 271 269 268 267 264 261 260 259 258 257 256 255 254 253 254 255 256 256 256 256 256 257 259 259 259 259 259 258 257
302 300 300 299 300 300 301 302 302 302 302 302 303 303 302 300 298 295 294 293 292 290 289 288 288 288 288 288 288 288 288 288 289 290 291 292 293 294 295 296 296 297 296 296 294 293 291 289 287 286 284 283 281 279 277 275 274 272 270 269 268 266 264 263 260 258 257 256 254 253 253 253 254 255 255 255 255 255 256 258 258 259 259 258 257
303 301 300 299 300 301 301 302 302 301 300 300 301 302 302 301 299 296 293 292 291 291 291 291 290 290 290 289 289 289 289 289 290 291 292 293 294 296 298 299 300 300 300 300 299 297 296 293 291 289 288 286 284 282 280 278 277 275 273 272 271 270 269 267 264 261 259 257 255 254 254 253 252 253 253 254 254 254 254 254 256 257 257 257 257
304 301 300 299 300 300 302 302 302 301 299 299 299 300 300 300 298 295 292 290 290 292 293 293 292 291 290 290 289 289 290 290 290 291 292 293 295 297 298 300 301 302 302 302 302 301 299 297 295 293 291 289 287 285 283 281 280 278 276 275 273 272 271 269 267 265 263 260 258 256 255 254 253 252 252 252 252 253 252 252 252 254 255 255 256
305 302 300 299 299 300 302 302 302 300 298 298 298 298 298 298 297 293 290 289 290 292 293 293 292 291 290 290 290 290 290 290 291 291 292 293 294 296 297 299 299 300 301 302 303 303 303 301 298 295 292 290 288 286 284 283 282 281 279 277 276 274 272 271 269 268 266 264 262 259 257 256 255 254 253 252 251 251 251 251 251 251 252 253 254
305 301 299 299 299 300 301 302 301 300 298 297 297 297 296 296 295 293 290 288 289 291 292 292 292 291 290 290 290 290 290 290 291 291 291 292 293 294 295 296 297 297 299 300 301 303 304 304 302 299 295 292 289 287 285 284 283 282 281 279 278 276 274 273 271 270 269 267 265 263 261 259 258 257 255 254 253 251 251 251 250 250 250 251 252
305 301 300 299 299 300 301 301 301 300 298 297 297 297 296 295 294 293 291 289 289 290 290 291 291 291 290 290 290 290 290 291 291 291 291 292 292 292 293 293 293 294 294 296 298 300 302 303 302 299 296 294 291 289 287 285 284 283 282 281 279 278 276 275 274 273 272 270 268 266 264 262 261 260 258 257 255 254 252 251 250 250 249 249 249
304 301 300 300 300 300 301 301 300 300 298 297 297 297 296 295 295 293 291 290 289 289 289 290 290 290 290 291 291 291 291 292 292 291 291 291 291 291 290 290 290 290 290 291 293 296 299 301 300 297 295 293 291 289 288 286 284 283 282 281 280 279 278 277 275 274 274 273 271 269 267 265 264 263 261 259 258 257 256 254 252 250 250 249 248
304 302 300 300 300 300 301 301 301 299 298 297 297 297 297 297 296 295 293 291 290 290 290 290 290 290 290 291 291 292 292 293 293 292 292 291 290 289 288 288 287 286 287 288 290 294 298 299 298 297 295 293 291 290 288 286 284 282 282 281 281 281 280 279 277 276 275 275 274 272 270 268 266 265 264 263 261 260 259 258 256 253 251 251 249
305 303 300 299 299 300 301 301 301 299 298 297 296 296 296 297 297 298 296 294 293 293 292 292 292 291 291 292 292 292 293 294 294 293 293 293 292 291 289 288 287 287 288 289 292 296 299 300 299 298 296 294 293 291 289 287 284 282 281 280 280 280 280 280 279 278 277 276 275 274 273 271 269 267 266 265 264 262 261 261 259 256 255 254 252
305 302 301 300 300 301 302 301 300 299 298 297 296 295 295 295 296 297 297 297 297 296 295 294 293 292 292 292 293 293 293 294 296 297 298 298 298 297 295 294 293 293 294 295 297 301 302 301 300 299 297 296 295 293 291 289 286 284 283 281 280 279 279 279 279 278 277 276 275 276 275 273 271 269 268 267 266 265 265 264 262 260 259 258 256
305 302 300 300 301 301 302 301 300 299 298 297 296 295 294 294 294 294 295 296 296 297 296 296 295 295 294 294 295 296 297 299 300 301 302 303 304 303 301 299 299 298 298 299 302 304 303 302 300 299 298 297 296 296 295 293 290 288 286 284 283 281 279 279 278 278 277 275 275 275 276 275 274 271 270 269 269 268 268 267 266 264 262 261 259
304 302 300 300 301 302 302 301 300 300 299 298 297 295 294 294 295 294 294 294 295 295 296 296 296 296 296 296 296 297 299 300 300 301 302 304 305 305 304 303 302 302 302 303 305 305 304 302 301 300 298 298 299 299 298 297 295 293 291 289 287 285 283 281 279 278 276 275 275 275 275 275 274 273 271 271 271 271 271 270 269 267 265 263 261
303 302 301 301 302 302 302 301 301 300 300 299 298 297 296 294 294 294 294 295 295 295 295 294 295 295 295 296 296 296 296 297 297 298 299 301 303 305 305 305 305 304 305 306 307 306 305 304 302 301 300 300 300 301 301 300 299 297 295 292 290 289 287 284 281 279 277 275 274 274 274 274 273 273 272 272 272 273 273 272 271 269 267 264 261
303 302 302 303 303 302 302 302 301 301 300 299 299 299 298 296 295 293 293 294 295 295 295 295 294 294 294 295 295 295 296 296 296 297 298 299 301 303 304 306 306 306 307 308 308 307 306 305 304 303 302 302 303 303 303 303 301 300 298 296 294 292 289 287 284 281 278 276 274 273 272 272 272 272 272 272 272 273 273 273 272 271 268 265 262
303 303 303 303 303 302 302 302 302 301 301 300 300 299 299 298 297 296 294 293 292 293 294 294 295 295 295 295 295 296 296 296 296 296 297 297 298 299 302 305 308 309 309 310 309 309 308 307 306 306 306 306 305 304 302 301 300 299 298 297 295 294 291 289 286 283 281 279 277 275 273 272 272 272 272 273 273 273 274 274 273 272 269 266 262
304 304 303 303 302 302 302 302 301 301 302 301 301 300 300 300 299 298 297 295 293 291 290 290 291 292 293 293 294 294 295 295 295 295 295 295 295 297 301 305 308 309 309 309 309 309 308 308 308 309 309 308 307 305 302 300 298 296 295 294 294 293 291 288 286 284 283 282 281 280 278 276 275 275 274 274 274 274 274 274 274 273 271 267 262
304 304 303 302 302 302 302 301 301 301 302 302 302 301 301 301 300 299 299 298 297 295 292 290 289 289 290 291 291 292 293 293 293 294 295 295 295 297 301 304 307 309 310 310 309 309 308 308 308 310 310 310 309 307 305 302 298 295 293 292 291 291 289 286 283 282 281 281 281 281 281 280 280 280 279 278 278 278 277 277 276 275 273 269 263
304 303 302 302 302 302 301 301 301 301 301 301 301 301 301 301 300 300 300 299 299 298 297 295 293 291 291 291 292 292 293 293 294 294 294 295 296 298 302 306 309 311 311 310 309 308 307 307 308 310 311 311 311 309 307 304 301 297 293 290 289 288 287 284 281 278 277 277 277 277 278 279 280 282 282 283 283 283 282 280 278 276 274 271 265
302 302 302 302 301 301 301 300 301 301 301 301 301 301 301 301 301 301 301 300 300 299 298 298 297 295 294 293 293 293 293 293 293 293 293 294 296 299 302 306 309 309 310 310 310 309 309 309 311 313 314 313 313 311 310 308 306 303 298 294 290 287 284 282 279 276 273 273 273 274 275 275 276 278 281 283 284 284 284 280 276 275 275 272 263
302 302 302 301 301 301 301 300 300 300 300 301 301 302 302 302 302 302 302 302 302 301 301 300 299 298 298 297 297 296 296 294 292 291 290 291 293 296 300 303 306 308 309 310 310 310 311 312 314 315 315 316 315 315 313 312 311 309 305 300 295 289 284 279 276 274 271 269 270 272 275 277 277 277 279 282 283 282 280 277 275 277 276 270 257
302 302 302 301 301 301 300 300 299 299 300 301 301 301 302 302 302 302 303 303 303 303 303 303 302 301 300 300 299 299 299 298 295 292 290 289 290 293 297 302 305 307 309 310 310 311 312 314 316 316 316 317 318 318 317 316 316 314 311 307 302 296 289 281 275 271 269 267 267 268 272 276 278 277 278 282 284 282 278 276 277 277 273 264 252
303 302 302 302 302 302 301 300 299 300 300 300 300 301 302 302 303 303 302 302 302 303 303 303 303 302 302 302 301 302 302 301 299 296 294 292 292 293 298 302 306 308 310 311 311 312 314 316 316 316 317 319 319 319 319 320 319 319 316 313 308 303 298 289 279 271 267 265 264 265 267 272 276 277 277 279 284 285 283 280 278 272 264 258 251
302 303 303 303 303 303 302 301 300 300 300 299 299 300 301 302 302 302 302 302 302 302 302 302 302 303 303 303 303 304 304 303 302 301 299 297 296 296 300 304 307 309 311 312 312 313 315 317 318 318 319 321 321 321 322 323 323 323 322 318 313 308 303 298 289 277 269 264 263 264 265 268 272 275 276 278 282 286 287 284 275 263 254 250 243
303 303 303 304 304 304 303 302 302 301 300 299 299 299 299 300 301 301 302 302 302 301 302 302 302 303 303 303 304 305 305 304 304 303 302 300 299 299 301 305 308 310 312 313 313 315 317 319 320 320 321 322 322 324 325 326 326 327 326 324 320 316 310 304 296 286 275 267 263 263 264 266 268 272 274 276 280 284 287 285 273 256 246 241 229
303 304 304 304 305 305 305 304 303 302 301 300 300 299 299 298 299 300 301 302 302 302 302 302 302 303 303 303 303 304 304 304 304 304 303 302 301 300 301 304 307 309 311 313 314 315 318 320 322 322 322 322 323 325 326 327 327 329 329 328 327 324 319 310 301 292 282 272 266 263 262 263 265 268 270 273 277 281 284 286 275 254 240 232 220
303 304 304 305 305 305 305 305 305 304 303 302 301 300 299 298 298 299 300 301 301 302 302 302 302 302 302 302 302 303 303 304 305 305 304 303 301 300 300 302 305 308 310 312 314 315 317 319 321 321 321 322 322 323 325 326 327 329 330 329 330 333 333 327 316 302 288 277 269 264 262 261 263 264 266 270 277 281 283 286 279 257 240 230 223
302 303 303 304 304 305 305 305 306 305 305 304 302 300 299 299 298 298 298 299 300 301 302 302 301 301 301 301 301 301 301 303 304 305 304 303 301 300 299 301 304 307 309 310 312 315 316 317 319 320 320 320 321 321 323 325 327 328 328 329 334 341 343 340 336 328 312 291 275 268 266 264 263 264 266 270 276 280 282 283 275 255 239 230 222
300 301 302 303 304 304 305 305 305 305 306 305 303 301 300 299 298 298 298 299 300 301 302 302 301 300 300 300 299 299 300 301 302 303 304 303 302 300 298 299 302 305 307 309 311 314 315 316 318 319 320 320 320 321 322 324 326 328 328 331 339 346 346 344 347 348 342 326 301 283 274 269 265 264 264 266 270 275 277 272 254 231 214 203 194
298 300 301 301 302 303 303 304 305 305 306 305 304 303 301 300 299 299 298 299 300 301 302 302 301 301 301 301 300 299 300 299 299 300 302 303 302 300 297 297 300 303 305 307 309 312 314 315 316 317 318 319 319 320 321 323 326 328 331 335 343 347 347 349 355 355 350 346 341 326 305 285 270 260 252 245 243 242 230 207 191 182 176 170 166
296 298 299 300 301 301 302 302 303 304 305 304 304 304 302 301 300 299 298 299 300 301 301 301 301 302 302 302 301 301 300 299 299 298 300 301 302 300 297 295 297 300 303 305 307 310 312 313 314 316 317 318 318 318 319 322 326 330 333 338 345 349 351 355 4 7 3 3 15 30 53 113 136 149 160 165 167 165 161 157 156 154 153 151 150
294 296 297 298 299 299 300 301 302 303 303 304 304 304 302 301 300 299 299 299 300 301 300 300 301 302 302 302 302 302 301 300 299 298 298 300 301 300 297 295 295 297 301 303 305 308 310 311 312 314 315 316 316 316 317 321 326 331 334 338 344 351 355 2 15 28 35 48 76 99 112 121 127 134 141 146 148 146 143 143 143 142 142 142 143
292 294 295 296 297 298 299 300 301 302 302 303 303 303 302 301 300 299 299 299 299 299 299 300 300 301 302 302 302 303 303 302 300 299 298 298 299 299 297 294 293 295 298 301 303 305 307 308 309 311 312 313 312 312 315 321 327 331 335 338 343 351 1 12 28 46 61 75 91 103 111 116 120 124 128 133 135 133 130 130 132 133 135 137 139
Height
3021 3020 3019 3018 3017 3016 3015 3014 3013 3013 3012 3011 3011 3010 3009 3009 3008 3007 3007 3006 3005 3005 3004 3004 3003 3003 3003 3002 3002 3001 3001 3001 3001 3001 3001 3001 3001 3001 3000 3000 3000 3000 3000 3000 3000 3000 3000 2999 2999 2999 2999 2999 3000 3000 3000 3000 3001 3001 3001 3001 3001 2999 2997 2996 2994 2995 2999 3003 3002 3002 3002 3002 3002 3002 3001 3001 3002 3002 3002 3003 3003 3003 3002 3002 3002
3016 3015 3014 3013 3012 3011 3010 3009 3008 3007 3006 3005 3005 3004 3004 3003 3002 3002 3001 3001 3000 3000 2999 2999 2998 2997 2997 2997 2996 2996 2996 2995 2995 2995 2995 2995 2995 2995 2995 2995 2995 2995 2995 2995 2995 2995 2995 2994 2994 2994 2994 2994 2994 2994 2994 2994 2995 2995 2995 2995 2995 2995 2993 2991 2990 2989 2991 2996 2998 2997 2997 2997 2997 2997 2997 2997 2997 2997 2997 2998 2999 2999 2999 2999 2998
3012 3011 3010 3009 3007 3006 3005 3004 3003 3002 3001 3000 2999 2998 2997 2997 2996 2996 2995 2995 2994 2994 2993 2993 2993 2992 2992 2991 2991 2990 2990 2990 2990 2989 2989 2989 2990 2990 2990 2990 2990 2990 2990 2989 2989 2989 2989 2989 2989 2989 2988 2988 2988 2988 2989 2989 2989 2989 2989 2989 2989 2989 2989 2987 2986 2985 2984 2988 2992 2992 2992 2992 2992 2992 2992 2992 2992 2992 2993 2993 2994 2994 2995 2995 2995
3007 3006 3005 3004 3003 3002 3000 2999 2998 2997 2996 2994 2993 2992 2991 2990 2989 2989 2988 2988 2988 2987 2987 2987 2986 2986 2986 2985 2985 2984 2984 2984 2983 2983 2983 2983 2983 2984 2984 2984 2984 2984 2984 2984 2983 2983 2983 2983 2983 2983 2983 2983 2983 2983 2983 2983 2984 2984 2983 2984 2983 2983 2983 2982 2981 2980 2979 2980 2984 2986 2986 2986 2987 2987 2987 2987 2987 2988 2988 2988 2989 2989 2990 2991 2991
3003 3002 3000 2999 2998 2997 2995 2994 2993 2992 2990 2989 2988 2987 2985 2984 2983 2982 2982 2981 2981 2980 2980 2980 2979 2979 2979 2979 2979 2978 2978 2977 2977 2977 2977 2977 2977 2977 2978 2978 2978 2978 2978 2978 2977 2977 2977 2977 2977 2977 2977 2978 2978 2978 2978 2978 2978 2978 2977 2977 2977 2977 2978 2978 2977 2976 2974 2974 2976 2979 2980 2980 2981 2982 2981 2981 2982 2983 2983 2983 2984 2984 2985 2985 2986
2999 2997 2996 2994 2993 2991 2990 2989 2988 2986 2985 2984 2983 2981 2980 2979 2978 2976 2976 2975 2974 2973 2973 2972 2972 2972 2972 2972 2972 2971 2971 2970 2970 2970 2970 2970 2970 2971 2971 2971 2972 2972 2972 2972 2972 2971 2971 2971 2972 2972 2972 2972 2972 2972 2973 2972 2972 2972 2971 2971 2971 2971 2972 2972 2972 2971 2970 2969 2969 2972 2974 2975 2975 2976 2976 2976 2976 2977 2978 2978 2979 2979 2980 2980 2981
2995 2993 2991 2990 2988 2987 2985 2984 2982 2981 2980 2979 2977 2976 2975 2973 2972 2971 2970 2969 2968 2967 2966 2966 2965 2965 2965 2965 2965 2964 2964 2963 2963 2963 2963 2963 2963 2964 2964 2965 2965 2965 2966 2966 2966 2965 2965 2965 2965 2966 2966 2966 2966 2966 2966 2966 2966 2966 2966 2965 2965 2966 2966 2966 2966 2966 2965 2965 2964 2965 2967 2968 2969 2969 2971 2971 2971 2971 2971 2972 2973 2974 2974 2975 2976
2990 2988 2987 2985 2984 2982 2980 2979 2977 2976 2975 2973 2972 2971 2969 2968 2967 2965 2964 2963 2962 2961 2960 2959 2959 2958 2958 2957 2957 2957 2957 2956 2956 2955 2955 2955 2956 2956 2957 2957 2958 2959 2959 2959 2959 2959 2959 2959 2959 2959 2959 2959 2959 2960 2960 2959 2960 2960 2960 2960 2960 2960 2960 2960 2960 2960 2960 2960 2960 2959 2960 2962 2963 2963 2964 2965 2964 2965 2965 2965 2967 2968 2969 2969 2970
2985 2984 2982 2980 2979 2977 2976 2974 2973 2971 2970 2968 2967 2965 2964 2963 2961 2960 2959 2957 2956 2955 2954 2953 2952 2952 2952 2951 2950 2950 2949 2949 2948 2948 2947 2947 2948 2948 2949 2950 2951 2952 2952 2952 2952 2952 2952 2952 2952 2952 2952 2952 2952 2953 2953 2953 2953 2953 2954 2954 2954 2954 2954 2954 2954 2954 2954 2954 2955 2954 2954 2955 2956 2957 2957 2958 2958 2958 2959 2959 2960 2961 2962 2964 2965
2981 2979 2977 2976 2974 2972 2971 2970 2968 2967 2965 2963 2962 2960 2959 2957 2956 2955 2954 2952 2951 2950 2949 2947 2946 2946 2945 2945 2944 2943 2942 2942 2942 2941 2940 2939 2939 2940 2941 2942 2943 2944 2944 2945 2945 2945 2945 2945 2945 2945 2945 2945 2945 2946 2946 2946 2946 2946 2946 2947 2947 2947 2947 2948 2948 2948 2948 2948 2949 2949 2949 2950 2950 2950 2951 2952 2952 2952 2952 2952 2953 2954 2955 2957 2958
2976 2974 2973 2971 2969 2968 2966 2965 2963 2962 2960 2958 2957 2955 2953 2952 2950 2949 2948 2947 2946 2944 2943 2942 2941 2940 2940 2939 2938 2937 2936 2935 2935 2934 2933 2932 2931 2931 2932 2934 2935 2935 2936 2936 2937 2938 2938 2938 2938 2938 2938 2938 2938 2939 2939 2939 2939 2939 2939 2940 2940 2940 2940 2941 2942 2943 2942 2942 2943 2943 2943 2943 2944 2944 2944 2945 2945 2945 2946 2946 2946 2947 2948 2949 2951
2972 2970 2968 2966 2965 2963 2961 2960 2959 2957 2955 2953 2951 2950 2948 2946 2945 2944 2942 2941 2940 2939 2938 2937 2936 2935 2934 2934 2933 2932 2931 2930 2929 2928 2927 2926 2925 2924 2924 2926 2927 2927 2927 2928 2929 2929 2930 2930 2931 2931 2931 2931 2931 2931 2932 2932 2932 2932 2932 2933 2933 2934 2934 2933 2934 2936 2936 2936 2937 2937 2937 2937 2938 2938 2938 2938 2938 2939 2940 2940 2940 2941 2941 2942 2944
2967 2965 2964 2962 2960 2958 2956 2955 2954 2952 2950 2948 2946 2945 2943 2941 2940 2938 2937 2936 2935 2934 2933 2932 2931 2930 2929 2929 2928 2927 2925 2924 2923 2922 2921 2920 2919 2918 2918 2918 2919 2919 2919 2920 2920 2920 2921 2922 2922 2923 2923 2924 2924 2924 2924 2924 2924 2924 2925 2925 2926 2927 2927 2927 2927 2927 2928 2929 2930 2931 2932 2931 2931 2933 2933 2932 2932 2932 2933 2934 2934 2934 2935 2936 2937
2963 2961 2959 2957 2955 2953 2952 2950 2949 2947 2945 2944 2942 2940 2938 2936 2935 2933 2932 2931 2930 2929 2928 2927 2926 2925 2924 2923 2923 2922 2920 2919 2918 2917 2916 2915 2913 2912 2912 2912 2912 2912 2912 2912 2912 2912 2912 2913 2913 2915 2915 2915 2916 2916 2915 2915 2915 2916 2917 2917 2918 2920 2921 2922 2922 2921 2921 2921 2922 2924 2925 2925 2925 2926 2927 2926 2925 2925 2926 2928 2928 2928 2929 2930 2931
2958 2957 2955 2952 2950 2949 2947 2946 2944 2942 2941 2939 2937 2935 2933 2932 2930 2929 2927 2926 2925 2924 2923 2922 2921 2920 2919 2918 2918 2917 2915 2914 2913 2912 2911 2910 2908 2907 2907 2907 2906 2906 2906 2906 2906 2905 2905 2905 2905 2906 2907 2907 2908 2907 2906 2906 2906 2907 2908 2909 2910 2911 2913 2914 2915 2915 2915 2915 2915 2916 2917 2918 2919 2919 2920 2920 2920 2920 2920 2921 2922 2922 2923 2923 2925
2954 2952 2950 2948 2946 2945 2943 2942 2940 2938 2936 2934 2933 2931 2929 2927 2925 2924 2923 2921 2920 2919 2918 2917 2916 2915 2914 2913 2912 2912 2910 2909 2908 2907 2906 2904 2903 2902 2902 2901 2900 2900 2900 2900 2900 2899 2899 2898 2898 2898 2899 2899 2900 2899 2898 2897 2897 2898 2899 2900 2901 2902 2904 2906 2906 2907 2907 2908 2908 2908 2909 2910 2911 2912 2912 2913 2913 2914 2914 2914 2915 2915 2916 2917 2919
2950 2948 2945 2943 2942 2940 2939 2937 2936 2934 2932 2930 2928 2926 2924 2922 2921 2919 2918 2917 2915 2914 2913 2912 2911 2910 2909 2908 2907 2907 2906 2905 2903 2902 2901 2899 2898 2897 2896 2895 2895 2894 2894 2893 2893 2893 2893 2892 2892 2891 2891 2892 2892 2891 2890 2889 2888 2889 2890 2891 2892 2893 2895 2897 2897 2898 2899 2899 2899 2900 2901 2902 2903 2904 2905 2905 2906 2907 2907 2907 2909 2909 2908 2910 2912
2945 2943 2941 2939 2937 2936 2934 2933 2931 2930 2928 2926 2924 2922 2920 2918 2916 2915 2914 2912 2911 2910 2909 2908 2907 2906 2905 2903 2902 2902 2901 2900 2899 2898 2896 2894 2893 2892 2891 2890 2889 2888 2888 2887 2887 2887 2887 2887 2886 2885 2884 2884 2884 2884 2883 2881 2880 2880 2880 2880 2882 2884 2886 2887 2887 2888 2889 2889 2890 2891 2892 2893 2894 2896 2897 2898 2899 2900 2900 2901 2903 2903 2902 2904 2905
2941 2938 2936 2935 2933 2931 2930 2929 2927 2925 2924 2922 2920 2918 2916 2914 2912 2911 2909 2908 2907 2906 2905 2904 2903 2902 2900 2899 2898 2897 2897 2896 2895 2893 2892 2890 2888 2887 2886 2885 2884 2883 2882 2881 2881 2881 2880 2880 2880 2879 2877 2877 2877 2876 2876 2874 2873 2872 2872 2871 2872 2874 2876 2876 2876 2878 2879 2879 2881 2883 2884 2885 2886 2887 2889 2890 2892 2893 2893 2894 2895 2895 2895 2898 2899
2936 2934 2932 2930 2929 2927 2926 2924 2923 2921 2919 2918 2916 2914 2912 2910 2908 2907 2906 2904 2903 2902 2901 2900 2899 2898 2896 2895 2894 2893 2892 2892 2891 2889 2888 2886 2884 2883 2881 2880 2879 2878 2877 2876 2875 2874 2874 2873 2873 2873 2871 2870 2870 2869 2868 2867 2866 2865 2864 2863 2863 2865 2866 2866 2866 2868 2869 2869 2871 2874 2876 2877 2878 2878 2880 2881 2883 2885 2886 2886 2887 2887 2888 2890 2892
2932 2930 2928 2926 2924 2923 2921 2920 2918 2916 2915 2913 2912 2910 2908 2906 2905 2903 2902 2901 2900 2898 2897 2896 2895 2894 2893 2891 2890 2889 2888 2888 2887 2885 2884 2882 2880 2879 2877 2876 2874 2873 2872 2871 2869 2868 2868 2867 2867 2866 2865 2864 2863 2862 2861 2861 2859 2857 2857 2856 2856 2856 2855 2854 2856 2858 2858 2859 2862 2865 2866 2868 2869 2869 2871 2872 2873 2876 2877 2878 2879 2879 2879 2881 2883
2928 2926 2924 2922 2920 2918 2917 2915 2914 2912 2910 2909 2908 2906 2904 2902 2901 2899 2898 2897 2896 2895 2894 2893 2891 2890 2889 2888 2886 2885 2884 2884 2883 2881 2880 2879 2877 2875 2873 2871 2869 2867 2866 2865 2864 2863 2862 2861 2860 2860 2858 2857 2856 2855 2854 2853 2852 2850 2850 2850 2849 2848 2846 2844 2845 2847 2848 2850 2852 2854 2856 2858 2859 2860 2862 2863 2864 2866 2868 2869 2871 2871 2871 2873 2874
2924 2922 2920 2917 2916 2914 2913 2911 2909 2907 2906 2905 2903 2902 2900 2899 2897 2895 2894 2893 2892 2891 2890 2889 2888 2887 2886 2884 2883 2882 2881 2880 2879 2877 2876 2875 2873 2871 2869 2867 2865 2862 2860 2859 2858 2857 2856 2855 2854 2853 2852 2850 2849 2848 2847 2846 2844 2843 2843 2843 2841 2840 2838 2837 2837 2838 2838 2839 2841 2843 2845 2848 2849 2850 2852 2854 2854 2856 2857 2859 2861 2862 2863 2864 2865
2920 2918 2915 2913 2912 2910 2909 2907 2905 2903 2901 2900 2899 2898 2896 2895 2893 2891 2890 2889 2888 2888 2886 2885 2884 2883 2882 2881 2880 2878 2877 2877 2875 2873 2872 2871 2869 2868 2866 2863 2861 2858 2856 2854 2853 2851 2850 2849 2847 2846 2844 2843 2842 2841 2840 2839 2838 2836 2836 2835 2834 2832 2831 2830 2830 2829 2828 2829 2831 2833 2835 2838 2838 2840 2842 2843 2844 2846 2848 2849 2851 2854 2855 2856 2857
2916 2913 2911 2909 2907 2906 2905 2903 2901 2899 2897 2895 2894 2893 2892 2890 2889 2887 2886 2885 2884 2883 2882 2881 2879 2878 2878 2877 2876 2875 2874 2872 2871 2869 2867 2866 2865 2863 2861 2859 2857 2854 2852 2850 2848 2846 2845 2843 2841 2839 2837 2835 2834 2833 2833 2832 2831 2829 2828 2827 2826 2825 2824 2823 2823 2821 2820 2821 2822 2823 2826 2828 2829 2829 2831 2832 2833 2835 2838 2839 2841 2844 2845 2847 2848
2912 2909 2907 2905 2903 2901 2900 2899 2897 2895 2893 2891 2890 2888 2887 2886 2885 2883 2882 2880 2879 2878 2877 2876 2875 2874 2873 2872 2871 2870 2869 2868 2866 2864 2862 2861 2860 2858 2856 2854 2852 2850 2848 2846 2844 2842 2840 2838 2835 2833 2831 2829 2827 2826 2825 2824 2823 2822 2821 2819 2818 2818 2817 2816 2815 2814 2813 2813 2813 2814 2816 2819 2819 2819 2821 2822 2823 2825 2827 2828 2830 2833 2835 2836 2838
2908 2905 2903 2901 2899 2897 2896 2895 2893 2891 2889 2887 2885 2884 2882 2881 2880 2879 2877 2876 2875 2874 2873 2871 2870 2869 2868 2867 2866 2865 2864 2862 2860 2858 2857 2855 2854 2852 2850 2848 2846 2845 2843 2841 2839 2838 2836 2833 2829 2827 2824 2822 2820 2819 2817 2816 2815 2814 2813 2812 2811 2810 2810 2808 2807 2807 2806 2806 2806 2806 2807 2809 2810 2810 2812 2813 2813 2815 2817 2817 2818 2822 2825 2825 2826
2903 2901 2899 2896 2894 2893 2891 2890 2888 2887 2885 2883 2881 2880 2878 2877 2876 2874 2872 2871 2870 2869 2868 2867 2865 2864 2863 2862 2861 2860 2859 2857 2855 2853 2852 2850 2848 2846 2844 2842 2840 2839 2837 2835 2834 2832 2829 2826 2823 2821 2818 2816 2814 2812 2810 2809 2808 2807 2806 2805 2804 2803 2802 2801 2800 2800 2800 2799 2798 2798 2799 2800 2801 2802 2803 2804 2804 2806 2807 2807 2808 2811 2814 2814 2815
2899 2897 2894 2892 2890 2889 2887 2886 2884 2882 2881 2879 2877 2876 2874 2873 2872 2870 2868 2866 2865 2864 2863 2862 2861 2859 2858 2857 2856 2855 2854 2853 2851 2849 2847 2845 2843 2841 2838 2836 2835 2833 2831 2829 2828 2826 2823 2820 2817 2814 2811 2809 2807 2805 2804 2802 2801 2800 2799 2798 2797 2797 2796 2795 2794 2793 2793 2792 2791 2792 2792 2792 2793 2794 2795 2795 2796 2798 2799 2799 2799 2802 2803 2804 2805
2895 2893 2890 2888 2886 2884 2883 2881 2879 2878 2876 2875 2873 2872 2870 2868 2867 2866 2865 2863 2861 2859 2858 2857 2856 2854 2853 2852 2851 2850 2848 2847 2846 2844 2842 2840 2838 2836 2834 2832 2830 2828 2825 2824 2822 2820 2817 2814 2811 2808 2805 2803 2801 2799 2797 2796 2795 2794 2794 2792 2791 2790 2790 2789 2788 2787 2786 2786 2785 2786 2786 2785 2786 2786 2787 2786 2788 2790 2791 2791 2791 2793 2794 2794 2796
2891 2889 2886 2884 2882 2880 2879 2877 2875 2874 2872 2870 2869 2868 2867 2865 2862 2860 2859 2859 2857 2855 2853 2852 2850 2849 2848 2847 2846 2845 2844 2842 2840 2839 2837 2836 2834 2832 2829 2827 2825 2823 2821 2819 2817 2814 2811 2809 2806 2803 2801 2798 2795 2793 2792 2790 2789 2788 2787 2787 2786 2784 2784 2783 2782 2780 2780 2780 2780 2779 2779 2779 2779 2779 2779 2779 2780 2781 2782 2783 2784 2784 2785 2786 2787
2886 2884 2882 2880 2878 2876 2875 2873 2871 2869 2868 2866 2864 2863 2862 2862 2860 2857 2855 2853 2852 2851 2849 2847 2846 2845 2843 2841 2841 2840 2840 2838 2836 2834 2833 2831 2829 2827 2825 2823 2821 2818 2816 2814 2812 2809 2806 2803 2801 2798 2796 2793 2791 2789 2787 2785 2784 2783 2781 2781 2780 2779 2778 2777 2776 2775 2774 2774 2773 2773 2774 2773 2773 2773 2773 2773 2773 2774 2775 2776 2776 2777 2777 2778 2779
2882 2880 2878 2876 2874 2872 2870 2869 2867 2865 2864 2862 2860 2858 2857 2856 2856 2855 2853 2850 2848 2846 2844 2842 2841 2840 2838 2837 2835 2834 2834 2833 2831 2829 2828 2826 2824 2822 2821 2819 2816 2813 2811 2809 2806 2804 2801 2798 2796 2794 2791 2789 2787 2785 2783 2781 2779 2778 2777 2775 2775 2774 2773 2772 2770 2770 2769 2768 2768 2768 2768 2768 2767 2767 2767 2767 2767 2767 2768 2769 2770 2770 2770 2771 2772
2878 2876 2874 2872 2870 2868 2866 2864 2863 2861 2859 2858 2856 2854 2853 2851 2850 2850 2849 2848 2846 2843 2840 2838 2835 2834 2833 2832 2831 2829 2828 2827 2826 2824 2823 2821 2820 2818 2816 2815 2812 2809 2806 2803 2801 2798 2796 2793 2791 2789 2787 2785 2782 2780 2779 2777 2775 2773 2772 2771 2770 2769 2768 2767 2765 2764 2764 2763 2763 2763 2762 2762 2762 2761 2761 2761 2761 2761 2762 2763 2763 2764 2764 2764 2765
2873 2872 2870 2868 2866 2864 2862 2860 2858 2857 2855 2853 2852 2850 2849 2847 2845 2844 2843 2843 2842 2841 2839 2836 2832 2830 2828 2827 2826 2825 2824 2822 2821 2819 2818 2816 2815 2813 2812 2810 2808 2806 2803 2800 2797 2794 2791 2788 2786 2785 2782 2780 2778 2776 2774 2773 2771 2769 2768 2766 2765 2764 2763 2762 2761 2760 2759 2759 2758 2758 2757 2757 2757 2756 2755 2755 2756 2756 2756 2757 2757 2758 2758 2759 2759
2869 2867 2865 2863 2862 2860 2858 2856 2854 2853 2851 2849 2847 2846 2844 2843 2841 2840 2838 2837 2836 2835 2835 2833 2830 2827 2825 2823 2822 2821 2820 2818 2816 2815 2813 2811 2809 2808 2807 2805 2804 2802 2800 2796 2793 2791 2788 2785 2782 2780 2778 2776 2774 2772 2770 2768 2767 2765 2763 2762 2761 2760 2759 2758 2757 2756 2755 2755 2754 2753 2753 2753 2752 2752 2751 2750 2751 2751 2751 2751 2752 2752 2752 2753 2753
2865 2863 2861 2859 2858 2856 2854 2852 2850 2849 2847 2845 2843 2842 2840 2839 2837 2835 2834 2833 2831 2830 2829 2828 2826 2824 2822 2819 2818 2817 2816 2814 2812 2810 2809 2807 2805 2803 2801 2800 2798 2796 2794 2792 2789 2787 2784 2781 2779 2776 2774 2772 2770 2769 2767 2765 2763 2761 2759 2757 2756 2755 2754 2753 2753 2752 2751 2751 2750 2749 2749 2749 2748 2747 2746 2746 2746 2746 2746 2746 2746 2746 2746 2747 2747
2861 2859 2857 2855 2853 2852 2850 2848 2846 2845 2843 2842 2840 2838 2836 2835 2833 2831 2830 2828 2827 2825 2824 2823 2821 2819 2817 2816 2814 2813 2812 2810 2808 2806 2805 2803 2801 2799 2798 2796 2794 2792 2790 2787 2785 2783 2780 2778 2775 2773 2771 2769 2767 2765 2763 2761 2759 2757 2755 2753 2751 2750 2749 2748 2748 2747 2747 2746 2746 2746 2745 2745 2744 2744 2743 2742 2742 2742 2742 2741 2741 2741 2741 2741 2741
2856 2855 2853 2851 2849 2848 2846 2844 2843 2841 2839 2838 2836 2834 2833 2831 2829 2827 2826 2824 2822 2821 2820 2818 2817 2814 2812 2811 2810 2809 2808 2807 2805 2803 2802 2800 2798 2796 2795 2793 2791 2788 2786 2784 2781 2779 2777 2774 2771 2769 2767 2765 2764 2761 2759 2757 2755 2752 2750 2748 2746 2745 2744 2743 2742 2742 2742 2742 2742 2741 2741 2741 2740 2740 2739 2739 2738 2738 2737 2737 2737 2737 2737 2737 2737
2852 2851 2849 2847 2845 2844 2842 2840 2839 2837 2835 2834 2832 2830 2829 2827 2825 2823 2822 2820 2818 2817 2815 2814 2813 2810 2808 2806 2805 2804 2803 2803 2801 2799 2798 2797 2795 2793 2791 2790 2787 2785 2783 2780 2778 2776 2773 2771 2768 2766 2765 2763 2761 2758 2756 2753 2751 2749 2746 2744 2741 2740 2738 2737 2737 2737 2737 2737 2737 2737 2737 2737 2736 2736 2736 2735 2735 2734 2733 2733 2733 2733 2733 2733 2734
2848 2846 2845 2843 2841 2840 2838 2836 2834 2833 2831 2830 2828 2827 2825 2823 2821 2820 2818 2816 2815 2813 2812 2810 2809 2807 2805 2803 2801 2799 2798 2797 2796 2795 2794 2792 2791 2790 2788 2786 2784 2781 2779 2777 2775 2773 2771 2768 2766 2764 2762 2760 2758 2756 2753 2751 2748 2746 2743 2740 2737 2735 2733 2732 2731 2731 2731 2732 2733 2733 2733 2733 2733 2732 2732 2732 2731 2731 2730 2729 2729 2729 2730 2731 2732
2844 2842 2841 2839 2837 2836 2834 2832 2830 2829 2827 2826 2824 2823 2821 2819 2818 2816 2814 2813 2811 2809 2808 2807 2805 2803 2802 2799 2797 2795 2794 2793 2791 2791 2789 2788 2787 2785 2784 2782 2780 2778 2776 2774 2772 2770 2768 2766 2763 2761 2759 2757 2755 2753 2751 2749 2746 2743 2740 2737 2734 2731 2729 2728 2727 2726 2726 2727 2728 2728 2729 2729 2729 2729 2729 2729 2728 2727 2727 2726 2726 2726 2727 2728 2729
2840 2839 2837 2835 2833 2832 2830 2828 2826 2825 2823 2822 2820 2819 2817 2816 2814 2812 2810 2809 2807 2805 2804 2803 2802 2800 2799 2796 2794 2792 2791 2789 2787 2786 2785 2784 2783 2782 2780 2778 2776 2775 2773 2771 2769 2767 2765 2763 2761 2759 2756 2754 2752 2750 2748 2746 2744 2741 2738 2735 2732 2729 2726 2725 2723 2722 2722 2722 2723 2724 2725 2725 2725 2726 2725 2725 2725 2724 2724 2723 2723 2723 2724 2725 2726
2836 2835 2833 2831 2829 2828 2826 2824 2822 2821 2819 2818 2816 2815 2813 2812 2810 2809 2807 2805 2803 2802 2800 2799 2797 2796 2795 2794 2792 2790 2788 2786 2784 2783 2781 2780 2779 2778 2777 2775 2773 2772 2770 2768 2766 2764 2762 2760 2759 2756 2754 2752 2750 2748 2746 2744 2741 2739 2736 2734 2731 2728 2725 2723 2721 2720 2719 2719 2719 2720 2721 2721 2722 2722 2723 2722 2722 2721 2721 2721 2721 2721 2722 2723 2725
2832 2831 2829 2827 2826 2824 2822 2820 2819 2817 2815 2814 2812 2811 2809 2808 2806 2805 2803 2801 2800 2798 2796 2795 2793 2792 2791 2790 2788 2787 2785 2783 2781 2779 2778 2777 2776 2775 2774 2772 2771 2769 2767 2766 2764 2762 2759 2758 2756 2755 2753 2751 2749 2747 2745 2743 2740 2738 2735 2733 2730 2727 2724 2721 2720 2718 2717 2717 2717 2717 2718 2718 2719 2720 2720 2720 2719 2719 2719 2718 2719 2719 2720 2722 2723
2828 2827 2825 2824 2822 2820 2818 2816 2815 2813 2811 2810 2808 2807 2805 2804 2802 2801 2799 2798 2796 2794 2793 2791 2790 2788 2787 2786 2785 2783 2782 2780 2778 2777 2775 2774 2773 2772 2771 2769 2768 2766 2765 2763 2762 2760 2758 2756 2754 2753 2751 2750 2748 2746 2744 2742 2740 2738 2735 2733 2730 2727 2724 2721 2719 2717 2716 2715 2715 2715 2716 2716 2717 2717 2717 2718 2717 2717 2717 2717 2717 2718 2719 2720 2722
2824 2823 2821 2820 2818 2816 2814 2813 2811 2809 2807 2806 2804 2803 2801 2800 2798 2797 2795 2794 2792 2790 2789 2787 2786 2784 2783 2782 2781 2780 2778 2777 2775 2774 2772 2771 2770 2769 2768 2766 2765 2764 2762 2760 2759 2758 2756 2754 2753 2751 2750 2748 2747 2745 2743 2742 2740 2738 2735 2733 2730 2728 2725 2722 2719 2717 2716 2715 2714 2714 2714 2714 2715 2715 2715 2716 2716 2716 2716 2717 2717 2718 2719 2720 2721
2820 2819 2817 2816 2814 2812 2811 2809 2807 2805 2804 2802 2800 2799 2797 2796 2794 2793 2791 2790 2788 2787 2785 2784 2782 2781 2780 2778 2777 2776 2775 2773 2772 2770 2769 2768 2767 2765 2764 2763 2762 2761 2760 2758 2757 2755 2754 2752 2751 2749 2748 2747 2746 2744 2742 2741 2739 2737 2735 2733 2731 2729 2726 2724 2721 2719 2718 2716 2715 2714 2714 2713 2714 2714 2714 2715 2715 2716 2717 2717 2718 2719 2720 2721 2723
2816 2814 2813 2811 2810 2808 2806 2805 2803 2801 2800 2798 2796 2795 2793 2792 2790 2789 2787 2786 2785 2783 2781 2780 2778 2777 2776 2775 2773 2772 2771 2770 2768 2767 2766 2765 2763 2762 2761 2760 2760 2758 2757 2756 2755 2753 2752 2750 2749 2748 2747 2745 2744 2743 2742 2740 2739 2737 2735 2734 2732 2730 2728 2726 2724 2722 2720 2719 2717 2716 2715 2715 2715 2715 2715 2716 2717 2717 2718 2719 2720 2721 2722 2723 2725
2812 2810 2808 2807 2806 2804 2802 2801 2799 2797 2796 2794 2792 2791 2789 2788 2786 2785 2784 2782 2781 2779 2778 2776 2775 2774 2772 2771 2770 2769 2768 2766 2765 2764 2762 2761 2760 2759 2758 2757 2757 2756 2755 2754 2753 2751 2750 2749 2747 2746 2745 2744 2743 2742 2741 2740 2738 2737 2736 2734 2733 2731 2729 2728 2726 2724 2723 2722 2720 2719 2718 2718 2717 2718 2718 2719 2719 2720 2721 2722 2723 2724 2725 2726 2728
2807 2806 2804 2803 2801 2800 2798 2796 2795 2793 2792 2790 2788 2787 2785 2784 2782 2781 2780 2778 2777 2776 2774 2773 2771 2770 2769 2768 2766 2765 2764 2763 2762 2760 2759 2758 2757 2756 2755 2754 2754 2753 2752 2751 2751 2750 2748 2747 2746 2745 2744 2743 2742 2741 2740 2739 2738 2737 2736 2735 2733 2732 2731 2729 2728 2727 2725 2725 2723 2722 2722 2721 2721 2721 2721 2722 2722 2722 2723 2724 2725 2726 2728 2729 2731